Weather History for NW Arkansas Airport, AR

Change the Weather History Date:

Sunday, October 6, 2013

  Actual Average Record
Temperature  
Mean Temperature 52 °F -  
Max Temperature 61 °F - - ()
Min Temperature 43 °F - - ()
Degree Days  
Heating Degree Days 13    
Growing Degree Days 2 (Base 50)    
Moisture  
Dew Point 43 °F    
Average Humidity 73    
Maximum Humidity 100    
Minimum Humidity 51    
Precipitation  
Precipitation 0.01 in - - ()
Sea Level Pressure  
Sea Level Pressure 30.00 in    
Wind  
Wind Speed 7 mph (West)    
Max Wind Speed 15 mph    
Max Gust Speed 21 mph    
Visibility 10 miles    
Events      
T = Trace of Precipitation, MM = Missing Value Source: NWS Daily Summary

Daily Weather History Graph

Daily Weather History Graph

Search for Another Location

Airport:

Trip Planner

Search our weather history database for the weather conditions in past years. The results will help you decide how hot, cold, wet, or windy it might be!

Date:

Astronomy

Oct. 06, 2013 Rise Set
Actual Time 7:16 AM CDT 6:53 PM CDT
Civil Twilight 6:51 AM CDT 7:18 PM CDT
Nautical Twilight 6:21 AM CDT 7:48 PM CDT
Astronomical Twilight 5:51 AM CDT 8:18 PM CDT
Moon 8:58 AM CDT (10/6) 7:57 PM CDT (10/6)
Length of Visible Light 12h 27m
Length of Day
11h 36m
Waxing Crescent, 3% of the Moon is Illuminated
Oct 6
Waxing Crescent
Oct 11
First Quarter
Oct 18
Full
Oct 26
Last Quarter
Nov 3
New

Hourly Weather History & Observations

Time (CDT) Temp. Windchill Dew Point Humidity Pressure Visibility Wind Dir Wind Speed Gust Speed Precip Events Conditions
12:53 AM 46.9 °F - 46.0 °F 97% 30.01 in 10.0 mi SW 4.6 mph - N/A   Clear
1:53 AM 45.0 °F 42.6 °F 45.0 °F 100% 30.00 in 10.0 mi SW 4.6 mph - N/A   Clear
2:53 AM 46.9 °F - 45.0 °F 93% 29.98 in 10.0 mi WSW 8.1 mph - N/A   Clear
3:53 AM 46.0 °F 43.1 °F 44.1 °F 93% 29.98 in 10.0 mi WSW 5.8 mph - 0.01 in   Clear
4:53 AM 45.0 °F 42.6 °F 43.0 °F 93% 29.98 in 10.0 mi WSW 4.6 mph - N/A   Clear
5:53 AM 44.1 °F 42.5 °F 42.1 °F 93% 29.98 in 10.0 mi SW 3.5 mph - N/A   Clear
6:53 AM 43.0 °F 40.3 °F 41.0 °F 93% 29.99 in 10.0 mi SW 4.6 mph - N/A   Clear
7:53 AM 46.0 °F 41.0 °F 39.9 °F 79% 29.99 in 10.0 mi WNW 10.4 mph - N/A   Clear
8:53 AM 48.9 °F - 39.9 °F 71% 30.00 in 10.0 mi WNW 6.9 mph - N/A   Clear
9:53 AM 51.1 °F - 39.0 °F 63% 30.01 in 10.0 mi WNW 11.5 mph - N/A   Clear
10:53 AM 54.0 °F - 39.9 °F 59% 30.01 in 10.0 mi WNW 10.4 mph - N/A   Clear
11:53 AM 55.0 °F - 41.0 °F 59% 30.01 in 10.0 mi WNW 12.7 mph 17.3 mph N/A   Clear
12:53 PM 57.9 °F - 42.1 °F 56% 30.01 in 10.0 mi West 12.7 mph 18.4 mph N/A   Clear
1:53 PM 59.0 °F - 42.1 °F 53% 29.99 in 10.0 mi WNW 12.7 mph 20.7 mph N/A   Clear
2:53 PM 60.1 °F - 42.1 °F 51% 29.99 in 10.0 mi West 13.8 mph 20.7 mph N/A   Mostly Cloudy
3:53 PM 61.0 °F - 43.0 °F 52% 29.98 in 10.0 mi West 15.0 mph - N/A   Mostly Cloudy
4:53 PM 60.1 °F - 42.1 °F 51% 29.98 in 10.0 mi West 13.8 mph 19.6 mph N/A   Partly Cloudy
5:53 PM 59.0 °F - 42.1 °F 53% 29.99 in 10.0 mi WNW 8.1 mph 16.1 mph N/A   Clear
6:53 PM 55.0 °F - 44.1 °F 67% 30.01 in 10.0 mi West 6.9 mph - N/A   Clear
7:53 PM 53.1 °F - 44.1 °F 71% 30.01 in 10.0 mi WSW 4.6 mph - N/A   Scattered Clouds
8:53 PM 52.0 °F - 45.0 °F 77% 30.01 in 10.0 mi SW 4.6 mph - N/A   Scattered Clouds
9:53 PM 51.1 °F - 44.1 °F 77% 30.03 in 10.0 mi WSW 5.8 mph - N/A   Scattered Clouds
10:53 PM 50.0 °F - 44.1 °F 80% 30.03 in 10.0 mi WSW 5.8 mph - N/A   Clear
11:53 PM 50.0 °F - 44.1 °F 80% 30.03 in 10.0 mi West 6.9 mph - N/A   Clear